White Plains, CT

4:21 AM EST on November 13, 2019 (GMT -0500)
Westchester County

Weather History for KHPN - September, 2019

Change the Weather History Date:

Wednesday, September 11, 2019

  Actual Average Record
Temperature  
Mean Temperature 76 °F -  
Max Temperature 87 °F 73 °F 98 °F (1983)
Min Temperature 66 °F 57 °F 47 °F (1977)
Cooling Degree Days 11    
Growing Degree Days 26 (Base 50)    
Moisture  
Dew Point 67 °F    
Average Humidity 78    
Maximum Humidity 93    
Minimum Humidity 57    
Precipitation  
Precipitation 0.00 in - - ()
Sea Level Pressure  
Sea Level Pressure 30.11 in    
Wind  
Wind Speed 4 mph ()    
Max Wind Speed 10 mph    
Max Gust Speed -    
Visibility 10.0 miles    
Events      
Averages and records for this station are not official NWS values.
T = Trace of Precipitation, MM = Missing Value Source: Averaged Metar Reports

Daily Weather History Graph

Daily Weather History Graph

Search for Another Location

Airport or City:

Astronomy

Sep. 11, 2019 Rise Set
Actual Time 6:31 AM EDT 7:11 PM EDT
Civil Twilight 6:03 AM EDT 7:38 PM EDT
Nautical Twilight 5:30 AM EDT 8:11 PM EDT
Astronomical Twilight 4:56 AM EDT 8:45 PM EDT
Moon 6:23 PM EDT (9/11) 3:49 AM EDT (9/11)
Length of Visible Light 13h 35m
Length of Day
12h 40m
Waxing Gibbous, 94% of the Moon is Illuminated
Sep 11
Waxing Gibbous
Sep 14
Full
Sep 21
Last Quarter
Sep 28
New
Oct 5
First Quarter

Hourly Weather History & Observations

Time (EDT) Temp. Heat Index Dew Point Humidity Pressure Visibility Wind Dir Wind Speed Gust Speed Precip Events Conditions
12:56 AM 68.0 °F - 64.9 °F 90% 30.24 in 10.0 mi South 5.8 mph - N/A   Partly Cloudy
1:56 AM 68.0 °F - 64.0 °F 87% 30.23 in 10.0 mi Variable 3.5 mph - N/A   Clear
2:56 AM 66.9 °F - 63.0 °F 87% 30.22 in 10.0 mi Calm Calm - N/A   Partly Cloudy
3:45 AM 68.0 °F - 64.0 °F 87% 30.23 in 10.0 mi Variable 4.6 mph - N/A   Mostly Cloudy
3:56 AM 68.0 °F - 64.0 °F 87% 30.21 in 10.0 mi Variable 6.9 mph - N/A   Mostly Cloudy
4:56 AM 68.0 °F - 64.0 °F 87% 30.20 in 10.0 mi Variable 6.9 mph - N/A   Scattered Clouds
5:56 AM 68.0 °F - 64.0 °F 87% 30.20 in 10.0 mi Variable 4.6 mph - N/A   Mostly Cloudy
6:56 AM 68.0 °F - 64.0 °F 87% 30.21 in 10.0 mi Variable 4.6 mph - N/A   Scattered Clouds
7:56 AM 69.1 °F - 64.9 °F 87% 30.19 in 10.0 mi Variable 4.6 mph - N/A   Scattered Clouds
8:56 AM 71.1 °F - 64.0 °F 78% 30.18 in 10.0 mi Variable 3.5 mph - N/A   Partly Cloudy
10:56 AM 75.9 °F - 64.9 °F 69% 30.14 in 10.0 mi Variable 4.6 mph - N/A   Partly Cloudy
11:56 AM 79.0 °F - 66.0 °F 64% 30.12 in 10.0 mi WSW 10.4 mph - N/A   Partly Cloudy
12:56 PM 82.0 °F 84.5 °F 66.9 °F 60% 30.09 in 10.0 mi WSW 9.2 mph - N/A   Partly Cloudy
1:56 PM 84.0 °F 87.0 °F 68.0 °F 58% 30.06 in 10.0 mi Variable 4.6 mph - N/A   Clear
2:56 PM 84.9 °F 88.2 °F 68.0 °F 57% 30.04 in 10.0 mi SW 6.9 mph - N/A   Clear
3:56 PM 84.9 °F 88.2 °F 68.0 °F 57% 30.03 in 10.0 mi WSW 6.9 mph - N/A   Partly Cloudy
4:56 PM 86.0 °F 90.1 °F 69.1 °F 57% 30.02 in 10.0 mi WSW 3.5 mph - N/A   Partly Cloudy
5:56 PM 84.9 °F 88.8 °F 69.1 °F 59% 30.01 in 10.0 mi South 5.8 mph - N/A   Partly Cloudy
6:56 PM 80.1 °F 83.2 °F 70.0 °F 71% 30.01 in 10.0 mi South 4.6 mph - N/A   Partly Cloudy
7:56 PM 77.0 °F - 71.1 °F 82% 30.02 in 10.0 mi South 4.6 mph - 0.00 in   Partly Cloudy
8:56 PM 75.0 °F - 71.1 °F 87% 30.04 in 10.0 mi Calm Calm - 0.00 in   Partly Cloudy
9:56 PM 73.0 °F - 71.1 °F 93% 30.03 in 10.0 mi Calm Calm - N/A   Clear
10:56 PM 73.0 °F - 71.1 °F 93% 30.02 in 10.0 mi Calm Calm - N/A   Clear
11:56 PM 73.0 °F - 71.1 °F 93% 30.01 in 10.0 mi Calm Calm - N/A   Clear